Weather History for KECS - June, 2013

Change the Weather History Date:

Monday, June 3, 2013

  Actual Average (KCUT) Record (KCUT)
Temperature  
Mean Temperature 60 °F 54 °F  
Max Temperature 69 °F 66 °F 91 °F (1977)
Min Temperature 48 °F 42 °F 20 °F (1951)
Degree Days  
Heating Degree Days 6 11  
Month to date heating degree days 35  
Since 1 June heating degree days 35  
Since 1 July heating degree days 8204  
Cooling Degree Days 0 0  
Month to date cooling degree days 0  
Year to date cooling degree days 1  
Since 1 June cooling degree days 0  
Growing Degree Days 10 (Base 50)    
Moisture  
Dew Point 40 °F    
Average Humidity 49    
Maximum Humidity 72    
Minimum Humidity 25    
Precipitation  
Precipitation 0.00 in 0.13 in 1.08 in (1955)
Month to date precipitation 0.38  
Year to date precipitation 7.49  
Sea Level Pressure  
Sea Level Pressure 29.78 in    
Wind  
Wind Speed 17 mph (NNW)    
Max Wind Speed 26 mph    
Max Gust Speed 36 mph    
Visibility 10 miles    
Events      
T = Trace of Precipitation, MM = Missing Value Source: NWS Daily Summary

Daily Weather History Graph

Daily Weather History Graph

Search for Another Location

Airport or City:

Trip Planner

Search our weather history database for the weather conditions in past years. The results will help you decide how hot, cold, wet, or windy it might be!

Date:

Astronomy

Jun. 03, 2013 Rise Set
Actual Time 5:16 AM MDT 8:34 PM MDT
Civil Twilight 4:41 AM MDT 9:10 PM MDT
Nautical Twilight 3:55 AM MDT 9:56 PM MDT
Astronomical Twilight 2:58 AM MDT 10:53 PM MDT
Moon 2:24 AM MDT (6/3) 4:00 PM MDT (6/3)
Length of Visible Light 16h 28m
Length of Day
15h 17m
Waning Crescent, 21% of the Moon is Illuminated
Jun 3
Waning Crescent
Jun 8
New
Jun 16
First Quarter
Jun 23
Full
Jun 29
Last Quarter

Hourly Weather History & Observations

Time (MDT) Temp. Dew Point Humidity Pressure Visibility Wind Dir Wind Speed Gust Speed Precip Events Conditions
12:15 AM 62.6 °F 42.8 °F 48% 29.73 in 10.0 mi ESE 23.0 mph 29.9 mph N/A   Clear
12:35 AM 62.6 °F 42.8 °F 48% 29.72 in 10.0 mi ESE 20.7 mph 32.2 mph N/A   Clear
12:55 AM 62.6 °F 42.8 °F 48% 29.72 in 10.0 mi ESE 19.6 mph 28.8 mph N/A   Clear
1:15 AM 60.8 °F 42.8 °F 52% 29.70 in 10.0 mi ESE 19.6 mph 31.1 mph N/A   Clear
1:35 AM 60.8 °F 42.8 °F 52% 29.70 in 10.0 mi ESE 23.0 mph 32.2 mph N/A   Clear
1:55 AM 60.8 °F 42.8 °F 52% 29.69 in 10.0 mi ESE 20.7 mph 27.6 mph N/A   Clear
2:15 AM 60.8 °F 41.0 °F 48% 29.68 in 10.0 mi ESE 19.6 mph 35.7 mph N/A   Clear
2:35 AM 60.8 °F 42.8 °F 52% 29.67 in 10.0 mi ESE 21.9 mph 32.2 mph N/A   Clear
2:55 AM 59.0 °F 42.8 °F 55% 29.66 in 10.0 mi ESE 21.9 mph 27.6 mph N/A   Clear
3:15 AM 59.0 °F 42.8 °F 55% 29.65 in 10.0 mi ESE 18.4 mph 25.3 mph N/A   Clear
3:35 AM 59.0 °F 41.0 °F 51% 29.65 in 10.0 mi ESE 18.4 mph 27.6 mph N/A   Clear
3:55 AM 59.0 °F 42.8 °F 55% 29.65 in 10.0 mi ESE 17.3 mph 25.3 mph N/A   Clear
4:15 AM 59.0 °F 41.0 °F 51% 29.63 in 10.0 mi East 19.6 mph 25.3 mph N/A   Clear
4:35 AM 59.0 °F 41.0 °F 51% 29.62 in 10.0 mi ESE 17.3 mph 24.2 mph N/A   Clear
4:55 AM 59.0 °F 41.0 °F 51% 29.63 in 10.0 mi ESE 13.8 mph - N/A   Clear
5:15 AM 57.2 °F 41.0 °F 55% 29.62 in 10.0 mi East 13.8 mph - N/A   Clear
5:35 AM 59.0 °F 41.0 °F 51% 29.62 in 10.0 mi ESE 16.1 mph 23.0 mph N/A   Clear
5:55 AM 59.0 °F 41.0 °F 51% 29.62 in 10.0 mi East 16.1 mph 23.0 mph N/A   Clear
6:15 AM 59.0 °F 41.0 °F 51% 29.65 in 10.0 mi SSE 5.8 mph - N/A   Clear
6:35 AM 57.2 °F 44.6 °F 63% 29.66 in 10.0 mi SSE 3.5 mph - N/A   Clear
6:55 AM 59.0 °F 44.6 °F 59% 29.68 in 10.0 mi SSW 5.8 mph - N/A   Clear
7:15 AM 55.4 °F 46.4 °F 72% 29.69 in 10.0 mi WNW 8.1 mph - N/A   Clear
7:35 AM 55.4 °F 44.6 °F 67% 29.69 in 10.0 mi NNW 10.4 mph - N/A   Clear
7:55 AM 55.4 °F 44.6 °F 67% 29.68 in 10.0 mi NNW 9.2 mph - N/A   Clear
8:15 AM 55.4 °F 44.6 °F 67% 29.69 in 10.0 mi NW 8.1 mph - N/A   Clear
8:35 AM 59.0 °F 44.6 °F 59% 29.69 in 10.0 mi NNW 10.4 mph - N/A   Clear
8:55 AM 60.8 °F 46.4 °F 59% 29.72 in 10.0 mi WNW 26.5 mph 33.4 mph N/A   Clear
9:15 AM 59.0 °F 46.4 °F 63% 29.72 in 10.0 mi NW 26.5 mph 32.2 mph N/A   Clear
9:35 AM 60.8 °F 48.2 °F 63% 29.72 in 10.0 mi NNW 15.0 mph 28.8 mph N/A   Clear
9:55 AM 60.8 °F 48.2 °F 63% 29.73 in 10.0 mi NW 23.0 mph 31.1 mph N/A   Clear
10:15 AM 60.8 °F 46.4 °F 59% 29.74 in 10.0 mi NW 24.2 mph 29.9 mph N/A   Clear
10:35 AM 60.8 °F 46.4 °F 59% 29.76 in 10.0 mi NW 23.0 mph 32.2 mph N/A   Scattered Clouds
10:55 AM 59.0 °F 44.6 °F 59% 29.77 in 10.0 mi NW 23.0 mph 34.5 mph N/A   Scattered Clouds
11:15 AM 59.0 °F 44.6 °F 59% 29.78 in 10.0 mi NW 23.0 mph 28.8 mph N/A   Scattered Clouds
11:35 AM 59.0 °F 44.6 °F 59% 29.78 in 10.0 mi NW 20.7 mph 25.3 mph N/A   Clear
11:55 AM 60.8 °F 44.6 °F 55% 29.78 in 10.0 mi NW 16.1 mph 21.9 mph N/A   Clear
12:15 PM 60.8 °F 42.8 °F 52% 29.78 in 10.0 mi NNW 13.8 mph 23.0 mph N/A   Clear
12:35 PM 62.6 °F 44.6 °F 52% 29.79 in 10.0 mi NW 16.1 mph 21.9 mph N/A   Scattered Clouds
12:55 PM 62.6 °F 42.8 °F 48% 29.79 in 10.0 mi NW 11.5 mph 20.7 mph N/A   Scattered Clouds
1:15 PM 62.6 °F 42.8 °F 48% 29.79 in 10.0 mi WNW 13.8 mph 20.7 mph N/A   Clear
1:35 PM 64.4 °F 42.8 °F 45% 29.79 in 10.0 mi NW 12.7 mph 19.6 mph N/A   Clear
1:55 PM 64.4 °F 42.8 °F 45% 29.79 in 10.0 mi NNW 13.8 mph 21.9 mph N/A   Clear
2:15 PM 66.2 °F 41.0 °F 40% 29.79 in 10.0 mi NW 16.1 mph 25.3 mph N/A   Clear
2:35 PM 66.2 °F 41.0 °F 40% 29.80 in 10.0 mi NNW 15.0 mph 20.7 mph N/A   Clear
2:55 PM 66.2 °F 39.2 °F 37% 29.79 in 10.0 mi NNW 12.7 mph 24.2 mph N/A   Clear
3:15 PM 68.0 °F 37.4 °F 33% 29.79 in 10.0 mi NNW 15.0 mph 24.2 mph N/A   Clear
3:35 PM 68.0 °F 35.6 °F 30% 29.80 in 10.0 mi WNW 15.0 mph 24.2 mph N/A   Clear
3:55 PM 68.0 °F 35.6 °F 30% 29.80 in 10.0 mi NW 13.8 mph 19.6 mph N/A   Clear
4:15 PM 68.0 °F 35.6 °F 30% 29.81 in 10.0 mi NW 16.1 mph 23.0 mph N/A   Clear
4:35 PM 69.8 °F 33.8 °F 27% 29.81 in 10.0 mi NNW 19.6 mph 24.2 mph N/A   Clear
4:55 PM 69.8 °F 33.8 °F 27% 29.81 in 10.0 mi NW 13.8 mph 21.9 mph N/A   Clear
5:15 PM 69.8 °F 33.8 °F 27% 29.81 in 10.0 mi NW 13.8 mph 23.0 mph N/A   Clear
5:35 PM 69.8 °F 32.0 °F 25% 29.81 in 10.0 mi West 13.8 mph - N/A   Clear
5:55 PM 68.0 °F 33.8 °F 28% 29.81 in 10.0 mi NW 10.4 mph - N/A   Clear
6:15 PM 68.0 °F 33.8 °F 28% 29.82 in 10.0 mi NNW 9.2 mph 23.0 mph N/A   Clear
6:35 PM 68.0 °F 33.8 °F 28% 29.82 in 10.0 mi NNW 12.7 mph - N/A   Clear
7:15 PM 68.0 °F 32.0 °F 26% 29.85 in 10.0 mi WNW 12.7 mph - N/A   Clear
7:35 PM 62.6 °F 33.8 °F 34% 29.86 in 10.0 mi NW 11.5 mph 19.6 mph N/A   Clear
7:55 PM 62.6 °F 35.6 °F 37% 29.87 in 10.0 mi NW 12.7 mph - N/A   Clear
8:15 PM 62.6 °F 35.6 °F 37% 29.89 in 10.0 mi WNW 6.9 mph - N/A   Clear
8:35 PM 59.0 °F 39.2 °F 48% 29.91 in 10.0 mi NW 16.1 mph 20.7 mph N/A   Clear
8:55 PM 57.2 °F 39.2 °F 51% 29.93 in 10.0 mi NW 20.7 mph 28.8 mph N/A   Clear
9:15 PM 55.4 °F 37.4 °F 51% 29.95 in 10.0 mi NW 24.2 mph 33.4 mph N/A   Clear
9:35 PM 53.6 °F 37.4 °F 54% 29.97 in 10.0 mi NW 15.0 mph - N/A   Clear
9:55 PM 51.8 °F 37.4 °F 58% 29.98 in 10.0 mi NW 13.8 mph - N/A   Clear
10:15 PM 51.8 °F 37.4 °F 58% 29.99 in 10.0 mi NW 17.3 mph 23.0 mph N/A   Clear
10:35 PM 51.8 °F 35.6 °F 54% 30.00 in 10.0 mi NW 17.3 mph 23.0 mph N/A   Clear
10:55 PM 50.0 °F 35.6 °F 58% 30.00 in 10.0 mi NW 18.4 mph 24.2 mph N/A   Clear
11:15 PM 50.0 °F 33.8 °F 54% 30.02 in 10.0 mi NNW 19.6 mph 27.6 mph N/A   Clear
11:35 PM 50.0 °F 33.8 °F 54% 30.03 in 10.0 mi NW 16.1 mph 21.9 mph N/A   Clear
11:55 PM 48.2 °F 33.8 °F 58% 30.03 in 10.0 mi NNW 18.4 mph 23.0 mph N/A   Clear